Regional Weather Roundup
Issued by NWS

Home | Current Version | Previous Version | Text Only | Print | Product List | Glossary Off
Versions: 1 2 3 4 5 6 7 8 9 10 11 12 13 14 15 16 17 18 19 20 21 22 23 24 25 26 27 28 29 30 31 32 33 34 35 36 37 38 39 40 41 42 43 44 45 46 47 48 49 50

841
ASUS43 KOAX 271602
RWRNE

WEATHER ROUNDUP FOR NEBRASKA
NATIONAL WEATHER SERVICE OMAHA NE
1100 AM CDT MON MAR 27 2017

NOTES: SATELLITE DATA IS BEING USED TO AUGMENT CLOUD COVER ABOVE
       12000 FEET.
       "FAIR" INDICATES FEW OR NO CLOUDS BELOW 12,000 FEET WITH NO
       SIGNIFICANT WEATHER AND/OR OBSTRUCTIONS TO VISIBILITY.

  * THESE STATIONS DO NOT REPORT WEATHER SUCH AS RAIN...SNOW OR FOG.

NEZ001>004-019>022-054>056-271700-
NEBRASKA PANHANDLE

CITY           SKY/WX    TMP DP  RH WIND       PRES   REMARKS
SCOTTSBLUFF    SUNNY     49  35  58 CALM      29.91F
ALLIANCE       MOSUNNY   55  38  52 SW14G20   29.89F
CHADRON        SUNNY     47  40  76 N6        29.87F
KIMBALL        SUNNY     48  40  73 W8        29.94S
SIDNEY         SUNNY     51  37  58 SW9       29.93F
$$

NEZ057>060-069>072-079>082-271700-
SOUTHWEST NEBRASKA

CITY           SKY/WX    TMP DP  RH WIND       PRES   REMARKS
NORTH PLATTE   CLOUDY    41  39  93 CALM      29.97R
IMPERIAL       SUNNY     49  40  71 CALM      29.95S
LEXINGTON      CLOUDY    44  42  96 S6        29.98S
MCCOOK         SUNNY     49  42  77 VRB5      29.97R
OGALLALA       SUNNY     48  41  75 CALM      29.95S
$$

NEZ005>010-023>029-035>040-094-271700-
NORTH CENTRAL NEBRASKA

CITY           SKY/WX    TMP DP  RH WIND       PRES   REMARKS
VALENTINE      CLOUDY    45  39  79 S5        29.95S
AINSWORTH      CLOUDY    45  45 100 CALM      29.96R
BROKEN BOW     CLOUDY    44  32  62 CALM      29.96F
O`NEILL        CLOUDY    46  37  72 CALM      29.98S
ORD            CLOUDY    46  40  79 N3        29.97R
THEDFORD       FOG       41  41  99 CALM      29.96S VSB 1/2
$$

NEZ041-046>049-061>064-073>077-083>087-271700-
SOUTH CENTRAL NEBRASKA

CITY           SKY/WX    TMP DP  RH WIND       PRES   REMARKS
GRAND ISLAND   CLOUDY    44  41  89 NE3       30.00R
AURORA         CLOUDY    44  42  94 NE3       29.99R
HASTINGS       CLOUDY    45  41  86 E6        30.01R
HEBRON         CLOUDY    46  43  91 NE9       29.99S
HOLDREGE       CLOUDY    42  41  97 NE3       29.99R FOG
KEARNEY *      CLOUDY    46  39  76 CALM      30.00R
YORK           CLOUDY    45  43  93 N7        29.99R
$$

NEZ011>018-030>034-042>045-271700-
NORTHEAST NEBRASKA

CITY           SKY/WX    TMP DP  RH WIND       PRES   REMARKS
NORFOLK        CLOUDY    46  36  68 NE3       29.98R
ALBION         CLOUDY    46  38  72 CALM      29.99R
BLAIR          CLOUDY    47  41  81 N5        29.97S
FREMONT        CLOUDY    47  42  81 N3        29.99S
TEKAMAH        CLOUDY    47  41  80 N8        29.99R
WAYNE          CLOUDY    48  40  76 N6        29.98S
$$

NEZ050>053-065>068-078-088>093-271700-
SOUTHEAST NEBRASKA

CITY           SKY/WX    TMP DP  RH WIND       PRES   REMARKS
LINCOLN        CLOUDY    48  42  80 NE7       30.00S
OMAHA EPPLEY   CLOUDY    47  40  76 N8        29.98S
BEATRICE       CLOUDY    46  45  95 NE9       29.99S FOG
FALLS CITY     CLOUDY    48  43  82 N10       29.96R
NEBRASKA CITY  CLOUDY    46  41  85 N12       29.98R
PLATTSMOUTH    CLOUDY    47  38  73 N3        29.98R
$$

NEZ044-045-051>053-067-271700-
OMAHA AREA

CITY           SKY/WX    TMP DP  RH WIND       PRES   REMARKS
OMAHA EPPLEY   CLOUDY    47  40  76 N8        29.98S
BLAIR          CLOUDY    47  41  81 N5        29.97S
FREMONT        CLOUDY    47  42  81 N3        29.99S
MILLARD        CLOUDY    48  42  79 N7        29.98S
OFFUTT AFB     CLOUDY    48  40  74 N7        29.98R
PLATTSMOUTH    CLOUDY    47  38  73 N3        29.98R
WAHOO          CLOUDY    47  43  86 N6        29.98F
$$




USA.gov is the U.S. government's official web portal to all federal, state and local government web resources and services.